Flag for Germany Weather past 2 weeks in Ludwigsburg, Baden-Württemberg, Germany

Now
66 °F

Broken clouds.


Feels Like: 66 °F
Forecast: 48 / 68 °F
Wind: 3 mph from South

Location: Stuttgart-Echterdingen

Current Time: Apr 26, 2015 at 1:43:29 PM

Latest Report: Apr 26, 2015 at 1:20 PM


Visibility: N/A

Pressure: 29.77 "Hg

Humidity: 49%

Dew point: 46 °F

Location of LudwigsburgLocation

Historic Weather in Ludwigsburg — Graph

°F

Ludwigsburg temperature yesterday

Maximum temperature yesterday: 66 °F (at 2:20 PM)
Minimum temperature yesterday: 41 °F (at 5:20 AM)
Average temperature yesterday: 53 °F

Past Weeks' High & Low Weather Summary

 TemperatureHumidityPressure
High77 °F (Apr 15, 3:20 PM)94% (Apr 25, 9:50 PM)30.42 "Hg (Apr 25, 9:50 PM)
Low32 °F (Apr 23, 6:20 AM)15% (Apr 15, 5:50 PM)29.80 "Hg (Apr 26, 10:50 AM)
Average54 °F57%30.15 "Hg
* Reported Apr 11 12:20 PM — Apr 26 12:20 PM, Ludwigsburg, Weather by CustomWeather, © 2015

Note: Actual official high and low records may vary slightly from our data, if they occured in-between our weather recording intervals... More about our weather records

Advertising

Ludwigsburg weather history for previous 24 hours

 ConditionsComfort  
Time TempWeatherWind HumidityBarometerVisibility
12:20 PM
Sun, Apr 26
66 °FBroken clouds.6 mph49%29.80 "HgN/A
11:50 AM64 °FScattered clouds.5 mph52%29.80 "HgN/A
11:20 AM64 °FScattered clouds.3 mph56%29.80 "HgN/A
10:50 AM63 °FPassing clouds.5 mph59%29.80 "HgN/A
10:20 AM63 °FPassing clouds.3 mph59%29.83 "HgN/A
9:50 AM61 °FPassing clouds.5 mph68%29.83 "HgN/A
9:20 AM59 °FPassing clouds.5 mph77%29.83 "HgN/A
8:50 AM59 °FPassing clouds.5 mph77%29.83 "HgN/A
8:20 AM57 °FScattered clouds.1 mph77%29.83 "HgN/A
7:50 AM55 °FScattered clouds.1 mph82%29.83 "HgN/A
7:20 AM54 °FScattered clouds.1 mph88%29.83 "HgN/A
6:50 AM52 °FPassing clouds.2 mph88%29.83 "HgN/A
6:20 AM52 °FPassing clouds.3 mph88%29.83 "HgN/A
5:50 AM54 °FPassing clouds.1 mph88%29.83 "HgN/A
5:20 AM54 °FPartly cloudy.1 mph88%29.83 "HgN/A
4:50 AM52 °FClear.2 mph88%29.86 "Hg10 mi
4:20 AM54 °FClear.2 mph82%29.86 "Hg10 mi
3:50 AM52 °FClear.2 mph88%29.86 "Hg10 mi
3:20 AM54 °FPartly cloudy.2 mph82%29.86 "HgN/A
2:50 AM54 °FPartly cloudy.2 mph88%29.86 "HgN/A
2:20 AM54 °FLight rain. Partly cloudy.3 mph88%29.86 "HgN/A
1:50 AM54 °FPassing clouds.3 mph88%29.86 "HgN/A
1:20 AM55 °FPassing clouds.6 mph82%29.86 "HgN/A
12:50 AM55 °FPassing clouds.6 mph82%29.86 "HgN/A
12:20 AM55 °FPassing clouds.5 mph82%29.86 "HgN/A
11:20 PM
Sat, Apr 25
55 °FPartly cloudy.5 mph82%29.86 "HgN/A
10:50 PM55 °FPartly cloudy.3 mph88%29.86 "HgN/A
10:20 PM55 °FPassing clouds.3 mph88%29.86 "HgN/A
9:50 PM55 °FSprinkles. Passing clouds.1 mph94%29.86 "HgN/A
9:20 PM55 °FPartly sunny.1 mph88%29.86 "HgN/A
8:50 PM57 °FPartly sunny.2 mph88%29.86 "HgN/A
8:20 PM57 °FBroken clouds.5 mph88%29.86 "HgN/A
7:50 PM57 °FBroken clouds.5 mph88%29.83 "HgN/A
7:20 PM57 °FPartly sunny.5 mph88%29.86 "HgN/A
6:50 PM57 °FLight rain. Broken clouds.7 mph88%29.86 "HgN/A
6:20 PM57 °FLight rain. Broken clouds.7 mph88%29.86 "HgN/A
5:50 PM59 °FLight rain. Broken clouds.8 mph77%29.86 "HgN/A
5:20 PM59 °FLight rain. Broken clouds.8 mph72%29.86 "HgN/A
4:50 PM61 °FSprinkles. Broken clouds.12 mph68%29.86 "HgN/A
4:20 PM63 °FSprinkles. Broken clouds.12 mph64%29.86 "HgN/A
3:50 PM63 °FSprinkles. Partly sunny.9 mph59%29.86 "HgN/A
3:20 PM61 °FSprinkles. Partly sunny.14 mph68%29.86 "HgN/A
2:50 PM63 °FSprinkles. Partly sunny.14 mph59%29.86 "HgN/A
2:20 PM66 °FScattered showers. Broken clouds.15 mph46%29.86 "HgN/A
1:50 PM64 °FBroken clouds.10 mph52%29.86 "HgN/A
1:20 PM64 °FBroken clouds.7 mph56%29.86 "HgN/A
Weather by CustomWeather, © 2015

See weather overviewHow to use our weather pages